Tracking 35274 objects as of 10-Sep-2026
HD Live streaming from Space Station
objects crossing your sky now

DELTA 1 DEB


10-day predictions


NORAD ID: 7146
Int'l Code: 1973-086DL
Launch date: November 6, 1973
Source: United States (US)
Launch site: AIR FORCE WESTERN TEST RANGE (AFWTR)

Note: This is SATELLITE DEBRIS
Your satellite tracking list
Your tracking list is empty




NASA's NSSDC Master Catalog

Two Line Element Set (TLE):
1  7146U 73086DL  26253.57801058  .00000109  00000-0  10739-2 0  9996
2  7146 101.7471 128.7346 0061361   4.8852  59.1972 12.44361992384522
Source of the keplerian elements: AFSPC